| time (UTC) | temp C | wind direction | speed KPH | gust KPH | rain 1hr cm | rain 24hr cm | rain mn cm | humidity % | barometer mb |
| 20260502215007 | 11 | 188 | 0.0 | 8.0 | 0.00 | 0.00 | 0.00 | 84 | 1009.9 |
| 20260502214523 | 11 | 188 | 3.2 | 9.7 | 0.00 | 0.00 | 0.00 | 84 | 1010.0 |
| 20260502214009 | 11 | 189 | 3.2 | 9.7 | 0.00 | 0.00 | 0.00 | 84 | 1010.1 |
| 20260502213505 | 11 | 176 | 3.2 | 12.9 | 0.00 | 0.00 | 0.00 | 84 | 1010.1 |
| 20260502213008 | 11 | 203 | 4.8 | 12.9 | 0.00 | 0.00 | 0.00 | 84 | 1010.0 |
| 20260502212504 | 11 | 182 | 4.8 | 9.7 | 0.00 | 0.00 | 0.00 | 84 | 1010.0 |
| 20260502212006 | 11 | 177 | 1.6 | 9.7 | 0.00 | 0.00 | 0.00 | 84 | 1010.1 |
| 20260502211521 | 11 | 186 | 4.8 | 9.7 | 0.00 | 0.00 | 0.00 | 84 | 1010.2 |
| 20260502211010 | 11 | 195 | 1.6 | 6.4 | 0.00 | 0.00 | 0.00 | 84 | 1010.1 |
| 20260502210506 | 11 | 165 | 1.6 | 3.2 | 0.00 | 0.00 | 0.00 | 84 | 1010.0 |
| 20260502210016 | 11 | 194 | 1.6 | 8.0 | 0.00 | 0.00 | 0.00 | 85 | 1009.9 |
| 20260502205510 | 11 | 178 | 1.6 | 8.0 | 0.00 | 0.00 | 0.00 | 85 | 1010.1 |
| 20260502205008 | 11 | 181 | 4.8 | 8.0 | 0.00 | 0.00 | 0.00 | 85 | 1010.1 |
| 20260502204522 | 11 | 179 | 3.2 | 8.0 | 0.00 | 0.00 | 0.00 | 85 | 1010.1 |
| 20260502204009 | 11 | 175 | 1.6 | 8.0 | 0.00 | 0.00 | 0.00 | 86 | 1010.1 |
| 20260502203511 | 11 | 194 | 1.6 | 9.7 | 0.00 | 0.00 | 0.00 | 86 | 1010.1 |
| 20260502203024 | 11 | 159 | 3.2 | 9.7 | 0.00 | 0.00 | 0.00 | 86 | 1010.1 |
| 20260502202509 | 11 | 190 | 1.6 | 9.7 | 0.00 | 0.00 | 0.00 | 86 | 1010.3 |
| 20260502202003 | 11 | 175 | 4.8 | 9.7 | 0.00 | 0.00 | 0.00 | 86 | 1010.3 |
| 20260502201508 | 11 | 177 | 3.2 | 9.7 | 0.00 | 0.00 | 0.00 | 86 | 1010.5 |
| 20260502201004 | 11 | 182 | 3.2 | 11.3 | 0.00 | 0.00 | 0.00 | 86 | 1010.6 |
| 20260502200506 | 10 | 162 | 6.4 | 14.5 | 0.00 | 0.00 | 0.00 | 86 | 1010.6 |
| 20260502200016 | 10 | 182 | 6.4 | 14.5 | 0.00 | 0.00 | 0.00 | 86 | 1010.6 |
| 20260502195507 | 10 | 153 | 8.0 | 14.5 | 0.00 | 0.00 | 0.00 | 86 | 1010.7 |
| 20260502195006 | 10 | 187 | 6.4 | 11.3 | 0.00 | 0.00 | 0.00 | 86 | 1010.7 |
| 20260502194520 | 10 | 160 | 4.8 | 9.7 | 0.00 | 0.00 | 0.00 | 86 | 1010.9 |
| 20260502194007 | 10 | 169 | 4.8 | 9.7 | 0.00 | 0.00 | 0.00 | 87 | 1010.8 |
| 20260502193508 | 10 | 151 | 1.6 | 14.5 | 0.00 | 0.00 | 0.00 | 86 | 1010.8 |
| 20260502193027 | 10 | 163 | 6.4 | 14.5 | 0.00 | 0.00 | 0.00 | 86 | 1011.0 |
| 20260502192509 | 10 | 188 | 8.0 | 11.3 | 0.00 | 0.00 | 0.00 | 86 | 1011.0 |
| 20260502192010 | 10 | 172 | 4.8 | 11.3 | 0.00 | 0.00 | 0.00 | 86 | 1011.0 |
| 20260502191525 | 10 | 187 | 4.8 | 8.0 | 0.00 | 0.00 | 0.00 | 86 | 1011.1 |
| 20260502191010 | 10 | 209 | 3.2 | 11.3 | 0.00 | 0.00 | 0.00 | 86 | 1011.2 |
| 20260502190506 | 10 | 199 | 3.2 | 11.3 | 0.00 | 0.00 | 0.00 | 86 | 1011.2 |
| 20260502190014 | 10 | 180 | 4.8 | 11.3 | 0.00 | 0.00 | 0.00 | 86 | 1011.2 |
| 20260502185506 | 10 | 148 | 4.8 | 11.3 | 0.00 | 0.00 | 0.00 | 86 | 1011.2 |
| 20260502185002 | 10 | 171 | 4.8 | 9.7 | 0.00 | 0.00 | 0.00 | 86 | 1011.3 |
| 20260502184505 | 10 | 179 | 4.8 | 9.7 | 0.00 | 0.00 | 0.00 | 86 | 1011.4 |
| 20260502184003 | 10 | 196 | 3.2 | 9.7 | 0.00 | 0.00 | 0.00 | 86 | 1011.3 |
| 20260502183503 | 10 | 180 | 4.8 | 11.3 | 0.00 | 0.00 | 0.00 | 86 | 1011.4 |
| 20260502183006 | 10 | 186 | 4.8 | 12.9 | 0.00 | 0.00 | 0.00 | 86 | 1011.4 |
| 20260502182503 | 10 | 162 | 8.0 | 12.9 | 0.00 | 0.00 | 0.00 | 86 | 1011.4 |
| 20260502182004 | 10 | 189 | 6.4 | 11.3 | 0.00 | 0.00 | 0.00 | 86 | 1011.3 |
| 20260502181507 | 10 | 196 | 6.4 | 11.3 | 0.00 | 0.00 | 0.00 | 86 | 1011.3 |
| 20260502181003 | 10 | 181 | 4.8 | 9.7 | 0.00 | 0.00 | 0.00 | 86 | 1011.4 |
| 20260502180504 | 10 | 175 | 4.8 | 9.7 | 0.00 | 0.00 | 0.00 | 86 | 1011.5 |
| 20260502170506 | 11 | 205 | 0.0 | 3.2 | 0.00 | 0.00 | 0.00 | 84 | 1011.8 |
| 20260502164003 | 11 | 242 | 0.0 | 0.0 | 0.00 | 0.00 | 0.00 | 84 | 1011.7 |
| 20260502163506 | 11 | 244 | 0.0 | 0.0 | 0.00 | 0.00 | 0.00 | 84 | 1011.7 |
| 20260502163018 | 11 | 248 | 0.0 | 0.0 | 0.00 | 0.00 | 0.00 | 84 | 1011.7 |
| 20260502162507 | 11 | 257 | 0.0 | 0.0 | 0.00 | 0.00 | 0.00 | 84 | 1011.8 |
| 20260502162012 | 11 | 257 | 0.0 | 1.6 | 0.00 | 0.00 | 0.00 | 84 | 1011.7 |
| 20260502161505 | 11 | 258 | 0.0 | 3.2 | 0.00 | 0.00 | 0.00 | 84 | 1011.8 |
| 20260502161007 | 11 | 239 | 1.6 | 3.2 | 0.00 | 0.00 | 0.00 | 84 | 1011.7 |
| 20260502160508 | 11 | 254 | 1.6 | 3.2 | 0.00 | 0.00 | 0.00 | 84 | 1011.9 |
| 20260502152006 | 11 | 220 | 1.6 | 3.2 | 0.00 | 0.00 | 0.00 | 83 | 1012.1 |
| 20260502151521 | 11 | 218 | 1.6 | 4.8 | 0.00 | 0.00 | 0.00 | 83 | 1012.1 |
| 20260502151011 | 11 | 208 | 1.6 | 4.8 | 0.00 | 0.00 | 0.00 | 83 | 1012.1 |
| 20260502150507 | 11 | 219 | 1.6 | 4.8 | 0.00 | 0.00 | 0.00 | 83 | 1012.2 |
| 20260502130507 | 11 | 153 | 1.6 | 3.2 | 0.00 | 0.00 | 0.00 | 80 | 1012.0 |
| 20260502123512 | 11 | 314 | 0.0 | 0.0 | 0.00 | 0.00 | 0.00 | 82 | 1012.6 |
| 20260502123014 | 11 | 13 | 0.0 | 0.0 | 0.00 | 0.00 | 0.00 | 82 | 1012.4 |
| 20260502122508 | 11 | 13 | 0.0 | 3.2 | 0.00 | 0.00 | 0.00 | 81 | 1012.4 |
| 20260502122004 | 11 | 13 | 0.0 | 3.2 | 0.00 | 0.00 | 0.00 | 81 | 1012.5 |
| 20260502121514 | 11 | 307 | 0.0 | 3.2 | 0.00 | 0.00 | 0.00 | 81 | 1012.5 |
| 20260502121004 | 11 | 315 | 0.0 | 1.6 | 0.00 | 0.00 | 0.00 | 82 | 1012.7 |
| 20260502120508 | 11 | 288 | 0.0 | 0.0 | 0.00 | 0.00 | 0.00 | 82 | 1012.8 |
| 20260502115512 | 11 | 254 | 0.0 | 0.0 | 0.00 | 0.00 | 0.00 | 82 | 1012.7 |
| 20260502115008 | 11 | 254 | 0.0 | 0.0 | 0.00 | 0.00 | 0.00 | 82 | 1012.7 |
| 20260502114521 | 11 | 283 | 0.0 | 0.0 | 0.00 | 0.00 | 0.00 | 82 | 1012.5 |
| 20260502114008 | 11 | 283 | 0.0 | 0.0 | 0.00 | 0.00 | 0.00 | 82 | 1012.4 |
| 20260502113511 | 11 | 283 | 0.0 | 0.0 | 0.00 | 0.00 | 0.00 | 82 | 1012.3 |
| 20260502113024 | 10 | 283 | 0.0 | 1.6 | 0.00 | 0.00 | 0.00 | 83 | 1012.3 |
| 20260502112510 | 10 | 283 | 0.0 | 1.6 | 0.00 | 0.00 | 0.00 | 83 | 1012.4 |
| 20260502112009 | 10 | 292 | 0.0 | 4.8 | 0.00 | 0.00 | 0.00 | 83 | 1012.3 |
| 20260502111510 | 10 | 244 | 0.0 | 4.8 | 0.00 | 0.00 | 0.00 | 83 | 1012.4 |
| 20260502111004 | 10 | 257 | 3.2 | 4.8 | 0.00 | 0.00 | 0.00 | 84 | 1012.4 |
| 20260502110504 | 10 | 251 | 0.0 | 1.6 | 0.00 | 0.00 | 0.00 | 84 | 1012.2 |
| 20260502110019 | 10 | 243 | 0.0 | 1.6 | 0.00 | 0.00 | 0.00 | 84 | 1012.1 |
| 20260502105507 | 10 | 240 | 0.0 | 0.0 | 0.00 | 0.00 | 0.00 | 84 | 1012.0 |
| 20260502105006 | 10 | 240 | 0.0 | 3.2 | 0.00 | 0.00 | 0.00 | 84 | 1012.0 |
| 20260502104537 | 10 | 212 | 0.0 | 3.2 | 0.00 | 0.00 | 0.00 | 83 | 1012.0 |
| 20260502104009 | 10 | 360 | 0.0 | 0.0 | 0.00 | 0.00 | 0.00 | 84 | 1012.1 |
| 20260502103507 | 10 | 21 | 0.0 | 3.2 | 0.00 | 0.00 | 0.00 | 84 | 1011.9 |
| 20260502103027 | 10 | 309 | 0.0 | 3.2 | 0.00 | 0.00 | 0.00 | 84 | 1011.8 |
| 20260502102512 | 10 | 304 | 0.0 | 6.4 | 0.00 | 0.00 | 0.00 | 84 | 1011.7 |
| 20260502102009 | 10 | 268 | 0.0 | 8.0 | 0.00 | 0.00 | 0.00 | 84 | 1011.8 |
| 20260502101526 | 10 | 252 | 3.2 | 8.0 | 0.00 | 0.00 | 0.00 | 84 | 1011.8 |
| 20260502101008 | 10 | 254 | 4.8 | 6.4 | 0.00 | 0.00 | 0.00 | 84 | 1011.7 |
| 20260502100503 | 10 | 251 | 3.2 | 6.4 | 0.00 | 0.00 | 0.00 | 84 | 1011.6 |
| 20260502091511 | 10 | 239 | 1.6 | 4.8 | 0.00 | 0.00 | 0.00 | 82 | 1011.3 |
| 20260502091005 | 10 | 247 | 3.2 | 4.8 | 0.00 | 0.00 | 0.00 | 82 | 1011.5 |
| 20260502090504 | 10 | 236 | 3.2 | 6.4 | 0.00 | 0.00 | 0.00 | 82 | 1011.6 |
| 20260502071007 | 10 | 252 | 1.6 | 3.2 | 0.00 | 0.00 | 0.00 | 81 | 1011.9 |
| 20260502070512 | 10 | 256 | 1.6 | 3.2 | 0.00 | 0.00 | 0.00 | 81 | 1011.9 |
| 20260502070026 | 10 | 256 | 1.6 | 3.2 | 0.00 | 0.00 | 0.00 | 81 | 1012.0 |
| 20260502065509 | 10 | 243 | 1.6 | 3.2 | 0.00 | 0.00 | 0.00 | 81 | 1012.2 |
| 20260502065012 | 10 | 234 | 1.6 | 6.4 | 0.00 | 0.00 | 0.00 | 80 | 1012.1 |
| 20260502064513 | 10 | 247 | 1.6 | 6.4 | 0.00 | 0.00 | 0.00 | 80 | 1012.2 |
| 20260502064004 | 10 | 238 | 3.2 | 6.4 | 0.00 | 0.00 | 0.00 | 80 | 1012.3 |
| 20260502063505 | 10 | 230 | 3.2 | 6.4 | 0.00 | 0.00 | 0.00 | 80 | 1012.3 |
| 20260502063016 | 10 | 252 | 3.2 | 4.8 | 0.00 | 0.00 | 0.00 | 80 | 1012.2 |
| 20260502062506 | 10 | 248 | 3.2 | 4.8 | 0.00 | 0.00 | 0.00 | 79 | 1012.0 |
| 20260502062008 | 10 | 260 | 3.2 | 4.8 | 0.00 | 0.00 | 0.00 | 79 | 1012.0 |
| 20260502061520 | 10 | 232 | 3.2 | 4.8 | 0.00 | 0.00 | 0.00 | 79 | 1012.2 |
| 20260502061009 | 10 | 246 | 1.6 | 4.8 | 0.00 | 0.00 | 0.00 | 79 | 1012.1 |
| 20260502060508 | 10 | 241 | 3.2 | 4.8 | 0.00 | 0.00 | 0.00 | 79 | 1012.3 |
| 20260502060024 | 10 | 250 | 1.6 | 4.8 | 0.00 | 0.00 | 0.00 | 79 | 1012.3 |
| 20260502055508 | 10 | 245 | 1.6 | 4.8 | 0.00 | 0.00 | 0.00 | 78 | 1012.3 |
| 20260502055015 | 10 | 251 | 3.2 | 3.2 | 0.00 | 0.00 | 0.00 | 78 | 1012.2 |
| 20260502054526 | 10 | 244 | 3.2 | 3.2 | 0.00 | 0.00 | 0.00 | 78 | 1012.0 |
| 20260502054008 | 10 | 235 | 1.6 | 4.8 | 0.00 | 0.00 | 0.00 | 77 | 1012.1 |
| 20260502053507 | 10 | 227 | 1.6 | 4.8 | 0.00 | 0.00 | 0.00 | 77 | 1012.1 |
| 20260502053016 | 10 | 236 | 3.2 | 4.8 | 0.00 | 0.00 | 0.00 | 77 | 1012.4 |
| 20260502052506 | 10 | 238 | 3.2 | 4.8 | 0.00 | 0.00 | 0.00 | 77 | 1012.5 |
| 20260502052009 | 10 | 232 | 1.6 | 4.8 | 0.00 | 0.00 | 0.00 | 76 | 1012.4 |
| 20260502051533 | 10 | 232 | 3.2 | 4.8 | 0.00 | 0.00 | 0.00 | 77 | 1012.4 |
| 20260502051011 | 10 | 234 | 3.2 | 4.8 | 0.00 | 0.00 | 0.00 | 76 | 1012.6 |
| 20260502050507 | 10 | 232 | 3.2 | 4.8 | 0.00 | 0.00 | 0.00 | 76 | 1012.6 |
| 20260502050022 | 10 | 234 | 3.2 | 6.4 | 0.00 | 0.00 | 0.00 | 76 | 1012.5 |
| 20260502045508 | 10 | 246 | 3.2 | 6.4 | 0.00 | 0.00 | 0.00 | 76 | 1012.7 |
| 20260502045008 | 10 | 236 | 3.2 | 6.4 | 0.00 | 0.00 | 0.00 | 75 | 1012.9 |
| 20260502044528 | 10 | 242 | 3.2 | 4.8 | 0.00 | 0.00 | 0.00 | 75 | 1013.0 |
| 20260502044010 | 10 | 253 | 3.2 | 6.4 | 0.00 | 0.00 | 0.00 | 75 | 1012.8 |
| 20260502043509 | 10 | 244 | 3.2 | 6.4 | 0.00 | 0.00 | 0.00 | 75 | 1012.8 |
| 20260502043028 | 10 | 254 | 1.6 | 6.4 | 0.00 | 0.00 | 0.00 | 74 | 1012.7 |
| 20260502042509 | 10 | 223 | 3.2 | 6.4 | 0.00 | 0.00 | 0.00 | 75 | 1012.5 |
| 20260502042012 | 10 | 259 | 3.2 | 6.4 | 0.00 | 0.00 | 0.00 | 75 | 1012.6 |
| 20260502041529 | 9 | 234 | 3.2 | 6.4 | 0.00 | 0.00 | 0.00 | 75 | 1012.6 |
| 20260502041004 | 9 | 244 | 4.8 | 6.4 | 0.00 | 0.00 | 0.00 | 76 | 1012.6 |
| 20260502040506 | 8 | 230 | 3.2 | 4.8 | 0.00 | 0.00 | 0.00 | 77 | 1012.7 |
| 20260502040019 | 8 | 219 | 3.2 | 4.8 | 0.00 | 0.00 | 0.00 | 77 | 1012.6 |
| 20260502035507 | 8 | 229 | 3.2 | 4.8 | 0.00 | 0.00 | 0.00 | 78 | 1012.7 |
| 20260502035010 | 8 | 188 | 1.6 | 4.8 | 0.00 | 0.00 | 0.00 | 79 | 1012.8 |
| 20260502034537 | 8 | 333 | 0.0 | 0.0 | 0.00 | 0.00 | 0.00 | 79 | 1012.9 |
| 20260502034007 | 8 | 334 | 0.0 | 4.8 | 0.00 | 0.00 | 0.00 | 78 | 1012.9 |
| 20260502033514 | 8 | 334 | 0.0 | 4.8 | 0.00 | 0.00 | 0.00 | 78 | 1012.9 |
| 20260502033029 | 9 | 300 | 0.0 | 3.2 | 0.00 | 0.00 | 0.00 | 77 | 1013.0 |
| 20260502032509 | 9 | 16 | 0.0 | 3.2 | 0.00 | 0.00 | 0.00 | 77 | 1012.9 |
| 20260502032006 | 9 | 247 | 0.0 | 3.2 | 0.00 | 0.00 | 0.00 | 77 | 1013.0 |
| 20260502031514 | 9 | 247 | 0.0 | 4.8 | 0.00 | 0.00 | 0.00 | 76 | 1013.0 |
| 20260502031006 | 10 | 242 | 3.2 | 4.8 | 0.00 | 0.00 | 0.00 | 76 | 1013.1 |
| 20260502030508 | 10 | 239 | 0.0 | 0.0 | 0.00 | 0.00 | 0.00 | 76 | 1013.1 |
| 20260502030018 | 10 | 239 | 0.0 | 0.0 | 0.00 | 0.00 | 0.00 | 75 | 1013.1 |
| 20260502025505 | 10 | 239 | 0.0 | 0.0 | 0.00 | 0.00 | 0.00 | 74 | 1013.1 |
| 20260502025008 | 10 | 239 | 0.0 | 3.2 | 0.00 | 0.00 | 0.00 | 74 | 1013.0 |
| 20260502024528 | 10 | 239 | 0.0 | 3.2 | 0.00 | 0.00 | 0.00 | 74 | 1012.9 |
| 20260502024003 | 10 | 239 | 1.6 | 3.2 | 0.00 | 0.00 | 0.00 | 74 | 1012.8 |
| 20260502023505 | 10 | 225 | 1.6 | 3.2 | 0.00 | 0.00 | 0.00 | 73 | 1012.8 |
| 20260502023006 | 11 | 259 | 0.0 | 4.8 | 0.00 | 0.00 | 0.00 | 73 | 1012.9 |
| 20260502022503 | 11 | 259 | 1.6 | 4.8 | 0.00 | 0.00 | 0.00 | 73 | 1012.7 |
| 20260502022004 | 11 | 221 | 3.2 | 4.8 | 0.00 | 0.00 | 0.00 | 72 | 1012.6 |
| 20260502021510 | 11 | 238 | 3.2 | 4.8 | 0.00 | 0.00 | 0.00 | 72 | 1012.5 |
| 20260502021006 | 11 | 221 | 3.2 | 4.8 | 0.00 | 0.00 | 0.00 | 72 | 1012.5 |
| 20260502020504 | 11 | 238 | 3.2 | 4.8 | 0.00 | 0.00 | 0.00 | 72 | 1012.5 |
| 20260502020014 | 10 | 240 | 3.2 | 4.8 | 0.00 | 0.00 | 0.00 | 72 | 1012.4 |
| 20260502015507 | 10 | 234 | 3.2 | 4.8 | 0.00 | 0.00 | 0.00 | 72 | 1012.4 |
| 20260502015012 | 10 | 237 | 3.2 | 6.4 | 0.00 | 0.00 | 0.00 | 72 | 1012.4 |
| 20260502014524 | 10 | 232 | 3.2 | 6.4 | 0.00 | 0.00 | 0.00 | 71 | 1012.5 |
| 20260502014009 | 10 | 242 | 3.2 | 6.4 | 0.00 | 0.00 | 0.00 | 71 | 1012.5 |
| 20260502013506 | 10 | 230 | 3.2 | 6.4 | 0.00 | 0.00 | 0.00 | 70 | 1012.5 |
| 20260502013023 | 10 | 240 | 4.8 | 8.0 | 0.00 | 0.00 | 0.00 | 70 | 1012.5 |
| 20260502012503 | 10 | 252 | 4.8 | 8.0 | 0.00 | 0.00 | 0.00 | 70 | 1012.6 |
| 20260502012003 | 10 | 246 | 3.2 | 6.4 | 0.00 | 0.00 | 0.00 | 70 | 1012.6 |
| 20260502011504 | 10 | 232 | 4.8 | 8.0 | 0.00 | 0.00 | 0.00 | 70 | 1012.5 |
| 20260502011003 | 10 | 236 | 4.8 | 8.0 | 0.00 | 0.00 | 0.00 | 70 | 1012.5 |
| 20260502010503 | 10 | 259 | 4.8 | 8.0 | 0.00 | 0.00 | 0.00 | 70 | 1012.6 |
| 20260502010014 | 11 | 243 | 4.8 | 6.4 | 0.00 | 0.00 | 0.00 | 69 | 1012.5 |
| 20260502005503 | 11 | 250 | 4.8 | 6.4 | 0.00 | 0.00 | 0.00 | 69 | 1012.5 |
| 20260502005007 | 11 | 259 | 4.8 | 6.4 | 0.00 | 0.00 | 0.00 | 69 | 1012.4 |
| 20260502004520 | 11 | 249 | 4.8 | 8.0 | 0.00 | 0.00 | 0.00 | 69 | 1012.2 |
| 20260502004008 | 11 | 251 | 4.8 | 8.0 | 0.00 | 0.00 | 0.00 | 69 | 1012.1 |
| 20260502003508 | 11 | 248 | 4.8 | 8.0 | 0.00 | 0.00 | 0.00 | 69 | 1012.0 |
| 20260502003022 | 11 | 238 | 4.8 | 8.0 | 0.00 | 0.00 | 0.00 | 69 | 1011.9 |
| 20260502002508 | 11 | 244 | 4.8 | 8.0 | 0.00 | 0.00 | 0.00 | 68 | 1011.9 |
| 20260502002011 | 11 | 255 | 4.8 | 8.0 | 0.00 | 0.00 | 0.00 | 68 | 1011.8 |
| 20260502001524 | 11 | 236 | 4.8 | 8.0 | 0.00 | 0.00 | 0.00 | 68 | 1011.7 |
| 20260502001003 | 11 | 244 | 4.8 | 8.0 | 0.00 | 0.00 | 0.00 | 68 | 1011.7 |
| 20260502000502 | 11 | 235 | 4.8 | 8.0 | 0.00 | 0.00 | 0.00 | 67 | 1011.5 |
| 20260502000008 | 11 | 234 | 4.8 | 8.0 | 0.00 | 0.00 | 0.00 | 66 | 1011.5 |
| 20260501235503 | 11 | 248 | 4.8 | 9.7 | 0.00 | 0.00 | 0.00 | 66 | 1011.4 |
| 20260501235003 | 11 | 244 | 4.8 | 9.7 | 0.00 | 0.00 | 0.00 | 65 | 1011.3 |
| 20260501234515 | 11 | 266 | 4.8 | 8.0 | 0.00 | 0.00 | 0.00 | 65 | 1011.2 |
| 20260501234006 | 11 | 246 | 4.8 | 8.0 | 0.00 | 0.00 | 0.00 | 64 | 1011.1 |
| 20260501233511 | 11 | 243 | 4.8 | 8.0 | 0.00 | 0.00 | 0.00 | 64 | 1011.1 |
| 20260501233020 | 12 | 246 | 4.8 | 8.0 | 0.00 | 0.00 | 0.00 | 63 | 1011.0 |
| 20260501232506 | 12 | 255 | 4.8 | 12.9 | 0.00 | 0.00 | 0.00 | 64 | 1011.0 |
| 20260501232010 | 12 | 254 | 4.8 | 12.9 | 0.00 | 0.00 | 0.00 | 62 | 1011.0 |
| 20260501231535 | 12 | 258 | 6.4 | 12.9 | 0.00 | 0.00 | 0.00 | 62 | 1011.0 |
| 20260501231007 | 12 | 240 | 6.4 | 8.0 | 0.00 | 0.00 | 0.00 | 64 | 1010.9 |
| 20260501230507 | 12 | 238 | 6.4 | 9.7 | 0.00 | 0.00 | 0.00 | 63 | 1010.9 |
| 20260501230026 | 13 | 261 | 6.4 | 9.7 | 0.00 | 0.00 | 0.00 | 61 | 1010.8 |
| 20260501225503 | 13 | 250 | 4.8 | 9.7 | 0.00 | 0.00 | 0.00 | 59 | 1010.7 |
| 20260501225003 | 13 | 242 | 6.4 | 9.7 | 0.00 | 0.00 | 0.00 | 57 | 1010.6 |
| 20260501224512 | 13 | 267 | 4.8 | 9.7 | 0.00 | 0.00 | 0.00 | 56 | 1010.5 |
| 20260501224004 | 13 | 252 | 4.8 | 8.0 | 0.00 | 0.00 | 0.00 | 58 | 1010.4 |
| 20260501223510 | 13 | 245 | 4.8 | 11.3 | 0.00 | 0.00 | 0.00 | 58 | 1010.6 |
| 20260501223016 | 14 | 229 | 6.4 | 11.3 | 0.00 | 0.00 | 0.00 | 56 | 1010.5 |
| 20260501222511 | 14 | 246 | 4.8 | 8.0 | 0.00 | 0.00 | 0.00 | 56 | 1010.5 |
| 20260501222008 | 14 | 236 | 4.8 | 8.0 | 0.00 | 0.00 | 0.00 | 55 | 1010.4 |
| 20260501221519 | 14 | 246 | 4.8 | 8.0 | 0.00 | 0.00 | 0.00 | 54 | 1010.3 |
| 20260501221010 | 15 | 250 | 3.2 | 6.4 | 0.00 | 0.00 | 0.00 | 54 | 1010.3 |
| 20260501220509 | 15 | 230 | 4.8 | 8.0 | 0.00 | 0.00 | 0.00 | 55 | 1010.3 |
| 20260501220023 | 15 | 240 | 4.8 | 8.0 | 0.00 | 0.00 | 0.00 | 54 | 1010.2 |
| 20260501215507 | 15 | 238 | 3.2 | 8.0 | 0.00 | 0.00 | 0.00 | 55 | 1010.3 |